GEC8297 HKJK-EDDF

Flight info

Callsign GEC8297
Flight time N/A
Altitude 30000
Route ETORU1A LOTAS UM308 RUDOL/N0495F310 UM308 GETOL M308 KONET UG650 ASM/N0492F330 UG650 RASKA/N0490F320 T513 EGMEG/N0487F330 G660 JDW/N0487F320 L677 RAGNO/N0484F340 L677 CVO L617 MENKU Y661 ANTAR DCT AKINA DCT RIGRO DCT FSK/N0468F360 UL608 DISOR DCT LONTA UL608 DOLEV DCT BEDOX DCT SIMBA DCT AKINI T161 DEBHI DEBHI1B
Aircraft MD11/H-SDE1E2E3FGHIJ2J3J4J5M1RWXY/LB1D1

Departure

Time N/A
Airport Jomo Kenyatta International Airport (HKJK)

Arrival

Time 2026-05-06 06:40
Airport Frankfurt Main Airport (EDDF)
Time Latitude Longitude Altitude Speed Heading
2026-05-06 05:41 46.23662 15.86722 31930 ft 448 kts 310°
2026-05-06 05:41 46.25882 15.83562 31922 ft 448 kts 311°
2026-05-06 05:41 46.30383 15.77312 31919 ft 448 kts 311°
2026-05-06 05:42 46.34919 15.71124 31913 ft 448 kts 311°
2026-05-06 05:42 46.39462 15.64929 31914 ft 448 kts 311°
2026-05-06 05:43 46.43974 15.58758 31918 ft 448 kts 311°
2026-05-06 05:43 46.48501 15.52545 31909 ft 448 kts 311°
2026-05-06 05:44 46.53027 15.46319 31914 ft 448 kts 311°
2026-05-06 05:44 46.57561 15.40067 31913 ft 449 kts 311°
2026-05-06 05:45 46.62090 15.33807 31912 ft 449 kts 310°
2026-05-06 05:45 46.66617 15.27533 31915 ft 450 kts 310°
2026-05-06 05:46 46.71124 15.21274 31918 ft 450 kts 310°
2026-05-06 05:46 46.75646 15.14977 31911 ft 450 kts 310°
2026-05-06 05:47 46.80173 15.08658 31907 ft 450 kts 310°
2026-05-06 05:47 46.84698 15.02326 31905 ft 450 kts 310°
2026-05-06 05:48 46.89211 14.95956 31907 ft 451 kts 310°
2026-05-06 05:48 46.93721 14.89564 31917 ft 452 kts 310°
2026-05-06 05:49 46.98222 14.83204 31922 ft 452 kts 310°
2026-05-06 05:49 47.02754 14.76799 31929 ft 453 kts 310°
2026-05-06 05:50 47.07293 14.70370 31935 ft 453 kts 310°
2026-05-06 05:50 47.11821 14.63940 31936 ft 453 kts 310°
2026-05-06 05:51 47.16356 14.57483 31939 ft 454 kts 309°
2026-05-06 05:51 47.20892 14.51009 31938 ft 454 kts 309°
2026-05-06 05:52 47.25428 14.44515 31932 ft 455 kts 309°
2026-05-06 05:52 47.29938 14.38046 31902 ft 456 kts 309°
2026-05-06 05:53 47.34474 14.31525 31890 ft 455 kts 309°
2026-05-06 05:53 47.39012 14.24982 31879 ft 456 kts 309°
2026-05-06 05:54 47.43554 14.18415 31873 ft 456 kts 309°
2026-05-06 05:54 47.48057 14.11860 31867 ft 457 kts 309°
2026-05-06 05:55 47.52573 14.05241 31856 ft 457 kts 309°
2026-05-06 05:55 47.57101 13.98624 31853 ft 457 kts 309°
2026-05-06 05:56 47.61630 13.92009 31829 ft 457 kts 309°
2026-05-06 05:56 47.66159 13.85379 31845 ft 457 kts 309°
2026-05-06 05:57 47.70681 13.78742 31839 ft 457 kts 309°
2026-05-06 05:57 47.75200 13.72091 31846 ft 457 kts 308°
2026-05-06 05:58 47.79712 13.65433 31832 ft 457 kts 308°
2026-05-06 05:58 47.84196 13.58800 31830 ft 457 kts 308°
2026-05-06 05:59 47.88697 13.52123 31825 ft 457 kts 308°
2026-05-06 05:59 47.93193 13.45437 31829 ft 456 kts 308°
2026-05-06 06:00 47.97684 13.38741 31827 ft 457 kts 308°
2026-05-06 06:00 48.02172 13.32031 31830 ft 457 kts 307°
2026-05-06 06:01 48.06650 13.25297 31829 ft 456 kts 307°
2026-05-06 06:01 48.11108 13.18534 31824 ft 456 kts 307°
2026-05-06 06:02 48.15573 13.11781 31825 ft 456 kts 307°
2026-05-06 06:02 48.20049 13.05016 31825 ft 457 kts 307°
2026-05-06 06:03 48.24522 12.98242 31820 ft 457 kts 307°
2026-05-06 06:03 48.28983 12.91445 31825 ft 456 kts 306°
2026-05-06 06:04 48.33232 12.84412 31825 ft 454 kts 304°
2026-05-06 06:04 48.37378 12.77262 31822 ft 454 kts 303°
2026-05-06 06:05 48.41529 12.70102 31828 ft 454 kts 304°
2026-05-06 06:05 48.45662 12.62992 31827 ft 454 kts 304°
2026-05-06 06:06 48.49818 12.55833 31827 ft 454 kts 304°
2026-05-06 06:06 48.53977 12.48652 31829 ft 454 kts 304°
2026-05-06 06:07 48.58132 12.41457 31830 ft 455 kts 304°
2026-05-06 06:07 48.62288 12.34240 31837 ft 455 kts 304°
2026-05-06 06:08 48.66443 12.27006 31834 ft 455 kts 304°
2026-05-06 06:08 48.70568 12.19802 31833 ft 455 kts 304°
2026-05-06 06:09 48.74415 12.12279 31832 ft 445 kts 292°
2026-05-06 06:09 48.75612 12.08030 31835 ft 435 kts 281°
2026-05-06 06:09 48.76266 12.03578 31836 ft 430 kts 274°
2026-05-06 06:10 48.77049 11.94603 31834 ft 429 kts 272°
2026-05-06 06:10 48.77848 11.85632 31837 ft 430 kts 273°
2026-05-06 06:11 48.78757 11.76656 31826 ft 430 kts 274°
2026-05-06 06:11 48.79702 11.67693 31831 ft 431 kts 274°
2026-05-06 06:12 48.80637 11.58715 31835 ft 431 kts 274°
2026-05-06 06:12 48.81552 11.49788 31834 ft 431 kts 274°
2026-05-06 06:13 48.82474 11.40800 31830 ft 431 kts 274°
2026-05-06 06:13 48.83396 11.31792 31832 ft 432 kts 274°
2026-05-06 06:14 48.84987 11.22927 31825 ft 444 kts 289°
2026-05-06 06:14 48.86581 11.18853 31829 ft 454 kts 301°
2026-05-06 06:14 48.88695 11.15237 31834 ft 461 kts 309°
2026-05-06 06:15 48.93510 11.08698 31826 ft 466 kts 313°
2026-05-06 06:15 48.98401 11.02226 31829 ft 465 kts 312°
2026-05-06 06:16 49.03203 10.95616 31835 ft 465 kts 311°
2026-05-06 06:16 49.05534 10.92357 31830 ft 450 kts 311°
2026-05-06 06:16 49.07795 10.89195 31830 ft 432 kts 311°
2026-05-06 06:17 49.12169 10.83008 31832 ft 427 kts 310°
2026-05-06 06:17 49.16515 10.76831 31831 ft 427 kts 310°
2026-05-06 06:18 49.20800 10.70581 31827 ft 425 kts 308°
2026-05-06 06:18 49.22861 10.67379 31434 ft 420 kts 308°
2026-05-06 06:18 49.24898 10.64159 30441 ft 421 kts 307°
2026-05-06 06:19 49.26926 10.60931 29465 ft 420 kts 307°
2026-05-06 06:19 49.28955 10.57697 28267 ft 422 kts 308°
2026-05-06 06:19 49.30975 10.54480 27037 ft 425 kts 308°
2026-05-06 06:19 49.32362 10.52272 26181 ft 427 kts 308°
2026-05-06 06:20 49.35107 10.47901 24504 ft 431 kts 308°
2026-05-06 06:20 49.36444 10.45570 23728 ft 430 kts 304°
2026-05-06 06:20 49.38801 10.40781 22387 ft 420 kts 301°
2026-05-06 06:20 49.40460 10.37136 21415 ft 414 kts 301°
2026-05-06 06:21 49.41560 10.34676 20769 ft 411 kts 301°
2026-05-06 06:21 49.43166 10.31078 20013 ft 402 kts 301°
2026-05-06 06:21 49.44731 10.27589 19610 ft 396 kts 301°
2026-05-06 06:21 49.46296 10.24108 19228 ft 394 kts 301°
2026-05-06 06:22 49.47836 10.20689 18934 ft 396 kts 301°
2026-05-06 06:22 49.49419 10.17179 18834 ft 400 kts 301°
2026-05-06 06:22 49.51007 10.13661 18809 ft 401 kts 301°
2026-05-06 06:22 49.52595 10.10144 18802 ft 401 kts 301°
2026-05-06 06:23 49.54184 10.06613 18794 ft 399 kts 301°
2026-05-06 06:23 49.55743 10.03151 18402 ft 390 kts 301°
2026-05-06 06:23 49.57293 9.99707 18042 ft 390 kts 301°
2026-05-06 06:23 49.58845 9.96247 17840 ft 394 kts 301°
2026-05-06 06:24 49.60387 9.92810 17032 ft 388 kts 301°
2026-05-06 06:24 49.61926 9.89379 16385 ft 389 kts 301°
2026-05-06 06:24 49.63466 9.85943 16045 ft 388 kts 301°
2026-05-06 06:24 49.64979 9.82564 15830 ft 387 kts 301°
2026-05-06 06:25 49.66510 9.79145 15594 ft 386 kts 301°
2026-05-06 06:25 49.68035 9.75735 15371 ft 385 kts 301°
2026-05-06 06:25 49.71062 9.68951 14910 ft 382 kts 301°
2026-05-06 06:26 49.72565 9.65576 14699 ft 381 kts 301°
2026-05-06 06:26 49.74066 9.62193 14441 ft 380 kts 301°
2026-05-06 06:26 49.75552 9.58822 14135 ft 378 kts 301°
2026-05-06 06:26 49.77032 9.55462 13737 ft 376 kts 301°
2026-05-06 06:27 49.78501 9.52127 13152 ft 373 kts 301°
2026-05-06 06:27 49.79955 9.48828 12517 ft 369 kts 301°
2026-05-06 06:27 49.81362 9.45635 11914 ft 362 kts 301°
2026-05-06 06:27 49.82764 9.42450 11310 ft 354 kts 301°
2026-05-06 06:28 49.84136 9.39333 10771 ft 345 kts 301°
2026-05-06 06:28 49.85463 9.36292 10293 ft 335 kts 299°
2026-05-06 06:28 49.86467 9.33121 9918 ft 321 kts 288°
2026-05-06 06:28 49.87174 9.29894 9550 ft 311 kts 284°
2026-05-06 06:29 49.87782 9.26719 9159 ft 303 kts 283°
2026-05-06 06:29 49.88358 9.23616 8753 ft 296 kts 283°
2026-05-06 06:29 49.88922 9.20580 8367 ft 290 kts 283°
2026-05-06 06:29 49.89478 9.17612 7977 ft 284 kts 283°
2026-05-06 06:30 49.90026 9.14692 7593 ft 279 kts 283°
2026-05-06 06:30 49.90568 9.11820 7211 ft 275 kts 284°
2026-05-06 06:30 49.91101 9.08997 6844 ft 271 kts 284°
2026-05-06 06:30 49.91615 9.06281 6588 ft 263 kts 284°
2026-05-06 06:31 49.92106 9.03672 6348 ft 256 kts 283°
2026-05-06 06:31 49.92596 9.01054 6098 ft 249 kts 283°
2026-05-06 06:31 49.93135 8.98537 5828 ft 243 kts 289°
2026-05-06 06:31 49.93916 8.96231 5573 ft 240 kts 301°
2026-05-06 06:32 49.94994 8.94279 5318 ft 238 kts 315°
2026-05-06 06:32 49.96441 8.93088 5089 ft 235 kts 344°
2026-05-06 06:32 49.98029 8.93045 5035 ft 228 kts
2026-05-06 06:32 49.99592 8.93287 5020 ft 224 kts
2026-05-06 06:33 50.01140 8.93475 5014 ft 222 kts 359°
2026-05-06 06:33 50.02666 8.93595 5013 ft 223 kts 358°
2026-05-06 06:33 50.04235 8.93664 5004 ft 223 kts 357°
2026-05-06 06:33 50.05765 8.93696 4760 ft 220 kts 356°
2026-05-06 06:34 50.07241 8.93705 4441 ft 204 kts 356°
2026-05-06 06:34 50.08618 8.93545 4113 ft 195 kts 341°
2026-05-06 06:34 50.09786 8.92656 3997 ft 184 kts 315°
2026-05-06 06:34 50.10542 8.91101 4008 ft 179 kts 289°
2026-05-06 06:35 50.10764 8.89240 4010 ft 175 kts 264°
2026-05-06 06:35 50.10500 8.87397 4023 ft 175 kts 252°
2026-05-06 06:35 50.10127 8.85586 4018 ft 176 kts 251°
2026-05-06 06:35 50.09794 8.83757 3802 ft 174 kts 254°
2026-05-06 06:36 50.09469 8.81951 3540 ft 172 kts 253°
2026-05-06 06:36 50.09108 8.80170 3311 ft 173 kts 251°
2026-05-06 06:36 50.08700 8.78409 3092 ft 172 kts 249°
2026-05-06 06:36 50.08279 8.76691 2827 ft 169 kts 249°
2026-05-06 06:37 50.07866 8.74976 2604 ft 168 kts 249°
2026-05-06 06:37 50.07458 8.73265 2370 ft 169 kts 249°
2026-05-06 06:37 50.07052 8.71557 2142 ft 168 kts 249°
2026-05-06 06:37 50.06651 8.69876 1905 ft 161 kts 248°
2026-05-06 06:38 50.06284 8.68276 1701 ft 155 kts 250°
2026-05-06 06:38 50.05921 8.66699 1459 ft 156 kts 249°
2026-05-06 06:38 50.05543 8.65123 1234 ft 154 kts 248°
2026-05-06 06:38 50.05187 8.63572 1053 ft 154 kts 248°
2026-05-06 06:39 50.04800 8.61968 890 ft 160 kts 246°
2026-05-06 06:39 50.04411 8.60345 659 ft 161 kts 247°
2026-05-06 06:39 50.04028 8.58742 423 ft 155 kts 246°
2026-05-06 06:39 50.03687 8.57327 369 ft 117 kts 248°
2026-05-06 06:40 50.03474 8.56427 365 ft 64 kts 250°
2026-05-06 06:40 50.03348 8.55896 359 ft 44 kts 250°
2026-05-06 06:40 50.03307 8.55511 358 ft 29 kts 279°
2026-05-06 06:40 50.03343 8.55221 352 ft 26 kts 279°
2026-05-06 06:41 50.03366 8.55011 352 ft 17 kts 275°
2026-05-06 06:41 50.03341 8.54844 355 ft 16 kts 251°
2026-05-06 06:41 50.03304 8.54688 357 ft 15 kts 249°
2026-05-06 06:41 50.03283 8.54533 351 ft 13 kts 284°
2026-05-06 06:42 50.03345 8.54464 355 ft 10 kts 341°
2026-05-06 06:42 50.03424 8.54417 354 ft 18 kts 339°
2026-05-06 06:42 50.03537 8.54350 355 ft 17 kts 339°
2026-05-06 06:42 50.03638 8.54312 354 ft 10 kts 15°
2026-05-06 06:43 50.03679 8.54400 358 ft 14 kts 68°
2026-05-06 06:43 50.03719 8.54567 360 ft 17 kts 69°
2026-05-06 06:43 50.03755 8.54717 361 ft 14 kts 69°
2026-05-06 06:43 50.03791 8.54865 359 ft 14 kts 70°
2026-05-06 06:44 50.03821 8.54992 363 ft 11 kts 67°
2026-05-06 06:44 50.03862 8.55030 362 ft 5 kts 354°
2026-05-06 06:44 50.03904 8.55007 365 ft 5 kts 340°
2026-05-06 06:44 50.03914 8.55001 365 ft 0 kts 340°
2026-05-06 06:45 50.03919 8.54998 365 ft 3 kts 340°
2026-05-06 06:45 50.03963 8.54971 368 ft 9 kts 330°
2026-05-06 06:45 50.03983 8.54905 364 ft 7 kts 272°
2026-05-06 06:45 50.03967 8.54810 363 ft 10 kts 251°
2026-05-06 06:46 50.03965 8.54717 362 ft 8 kts 296°
2026-05-06 06:46 50.04017 8.54671 361 ft 5 kts 356°
2026-05-06 06:46 50.04036 8.54696 359 ft 5 kts 52°
2026-05-06 06:46 50.04050 8.54740 365 ft 2 kts 67°
2026-05-06 06:47 50.04053 8.54753 364 ft 1 kts 70°
2026-05-06 06:47 50.04056 8.54763 363 ft 1 kts 70°
2026-05-06 06:47 50.04058 8.54774 363 ft 0 kts 70°
2026-05-06 06:47 50.04059 8.54779 363 ft 0 kts 70°